Location: Beetenbrück
(52.8113°N, 9.5946°E)
Time: 22:00:58
(UTC+00:00)

Cosmos 371 Rocket - Pass Details

Date: 14 April 2026
Orbit: 674 x 689 km, 74.0° (Epoch: 12 May)

Event Time Altitude Azimuth Distance (km) Brightness Sun altitude
Rises 23:07:49 0° 331° (NNW) 3,067 7.6 -27.4°
Reaches altitude 10° 23:10:10 10° 327° (NNW) 2,148 6.6 -27.5°
Enters shadow 23:13:55 46° 292° (WNW) 932 4.0 -27.5°
